Weather History for Lawrenceville, IL

Change the Weather History Date:

Wednesday, January 18, 2012

  Actual Average Record
Temperature  
Mean Temperature 26 °F 31 °F  
Max Temperature 31 °F 39 °F 50 °F (2015)
Min Temperature 21 °F 23 °F 1 °F (1997)
Degree Days  
Heating Degree Days 39 34  
Month to date heating degree days 532 612  
Since 1 July heating degree days 2002 2411  
Cooling Degree Days 0 0  
Month to date cooling degree days 0 0  
Year to date cooling degree days 0 0  
Moisture  
Dew Point 16 °F    
Average Humidity 66    
Maximum Humidity 75    
Minimum Humidity 57    
Precipitation  
Precipitation 0.00 in 0.08 in 1.46 in (1969)
Month to date precipitation 1.39 1.62  
Year to date precipitation 1.39 1.62  
Sea Level Pressure  
Sea Level Pressure 30.26 in    
Wind  
Wind Speed 7 mph (SW)    
Max Wind Speed 17 mph    
Max Gust Speed 29 mph    
Visibility 10 miles    
Events      
T = Trace of Precipitation, MM = Missing Value Source: NWS Daily Summary

Daily Weather History Graph

Daily Weather History Graph

Search for Another Location

Airport:

Trip Planner

Search our weather history database for the weather conditions in past years. The results will help you decide how hot, cold, wet, or windy it might be!

Date:

Astronomy

Jan. 18, 2012 Rise Set
Actual Time 7:06 AM CST 4:55 PM CST
Civil Twilight 6:37 AM CST 5:24 PM CST
Nautical Twilight 6:04 AM CST 5:57 PM CST
Astronomical Twilight 5:32 AM CST 6:29 PM CST
Moon 2:35 AM CST (1/18) 12:34 PM CST (1/18)
Length of Visible Light 10h 47m
Length of Day
9h 49m
Waning Crescent, 24% of the Moon is Illuminated
Jan 18
Waning Crescent
Jan 23
New
Jan 30
First Quarter
Feb 7
Full
Feb 14
Last Quarter

Hourly Weather History & Observations

Time (CST) Temp. Windchill Dew Point Humidity Pressure Visibility Wind Dir Wind Speed Gust Speed Precip Events Conditions
12:14 AM 24.8 °F 12.9 °F 15.8 °F 69% 30.30 in 10.0 mi NNW 13.8 mph - N/A   Mostly Cloudy
12:53 AM 26.1 °F 16.2 °F 16.0 °F 66% 30.32 in 10.0 mi North 10.4 mph - N/A   Overcast
1:53 AM 25.0 °F 12.6 °F 15.1 °F 66% 30.33 in 10.0 mi North 15.0 mph - N/A   Overcast
2:53 AM 24.1 °F 13.1 °F 15.1 °F 69% 30.34 in 10.0 mi North 11.5 mph - N/A   Overcast
3:53 AM 21.9 °F 9.2 °F 12.9 °F 68% 30.34 in 10.0 mi WNW 13.8 mph - N/A   Overcast
4:53 AM 21.0 °F 10.6 °F 12.9 °F 71% 30.35 in 10.0 mi WNW 9.2 mph - N/A   Overcast
5:53 AM 21.0 °F 16.2 °F 12.0 °F 68% 30.36 in 10.0 mi Variable 3.5 mph - N/A   Overcast
6:53 AM 21.0 °F 14.6 °F 12.0 °F 68% 30.36 in 10.0 mi West 4.6 mph - N/A   Overcast
7:53 AM 21.0 °F 14.6 °F 12.0 °F 68% 30.38 in 10.0 mi NW 4.6 mph - N/A   Overcast
8:53 AM 21.0 °F - 12.0 °F 68% 30.37 in 10.0 mi Calm Calm - N/A   Overcast
9:53 AM 21.9 °F 17.2 °F 12.0 °F 66% 30.38 in 10.0 mi West 3.5 mph - N/A   Overcast
10:12 AM 24.8 °F - 12.2 °F 59% 30.35 in 10.0 mi Calm Calm - N/A   Scattered Clouds
10:53 AM 24.1 °F - 12.9 °F 62% 30.33 in 10.0 mi Calm Calm - N/A   Clear
11:53 AM 26.1 °F 20.5 °F 14.0 °F 60% 30.33 in 10.0 mi Variable 4.6 mph - N/A   Clear
1:53 PM 28.9 °F 23.9 °F 17.1 °F 61% 30.24 in 10.0 mi Variable 4.6 mph - N/A   Clear
2:53 PM 30.0 °F 23.2 °F 17.1 °F 59% 30.20 in 10.0 mi South 6.9 mph - N/A   Clear
3:53 PM 30.0 °F 22.4 °F 17.1 °F 59% 30.19 in 10.0 mi South 8.1 mph - N/A   Clear
4:53 PM 28.0 °F 21.7 °F 19.0 °F 69% 30.19 in 10.0 mi SW 5.8 mph - N/A   Clear
5:53 PM 26.1 °F 19.4 °F 19.0 °F 75% 30.16 in 10.0 mi South 5.8 mph - N/A   Clear
6:53 PM 28.0 °F 20.8 °F 21.9 °F 78% 30.15 in 10.0 mi SSE 6.9 mph - N/A   Overcast
7:53 PM 28.0 °F 18.6 °F 19.9 °F 72% 30.10 in 10.0 mi SSE 10.4 mph - N/A   Mostly Cloudy
8:53 PM 28.0 °F 18.6 °F 19.9 °F 72% 30.09 in 10.0 mi SSE 10.4 mph - N/A   Partly Cloudy
9:53 PM 28.0 °F 18.1 °F 19.9 °F 72% 30.08 in 9.0 mi South 11.5 mph - N/A   Clear
10:53 PM 27.0 °F 17.3 °F 19.9 °F 75% 30.09 in 9.0 mi SSW 10.4 mph - N/A   Clear
11:53 PM 27.0 °F 18.0 °F 19.9 °F 75% 30.08 in 9.0 mi South 9.2 mph - N/A   Clear